LEMUR-2-D

Last updated on Thu Dec 01 2016 00:15:03 GMT+0000 (Coordinated Universal Time)

1 41872U 16062D 16335.78046882 .00002240 00000-0 11406-3 0 9991 2 41872 51.6403 308.5706 0006376 258.1990 168.3322 15.21045639 728
UTC large
Height (km)
Speed (km/s)
/
Latitude / Longitude
Inclination (degrees)
Orbital Period (minutes)
Azimuth
Elevation
Range (km)
Doppler Factor

Next 0 passes for location: London (51.5072 / 0.1276)

Sorry there are no passes over London.